Probability
27 30 40 43 38 37 42 37 31 30 30 22 12 8 9 11 14 18 25 34 33 23 11 4 4 6 8 10 11 11 11 13 16 18 16 10 6 3 1 0 0 0 0
31 34 39 43 44 47 54 51 43 42 42 33 22 18 20 22 24 25 27 33 35 27 17 11 9 9 9 10 11 12 16 19 22 24 22 16 10 6 3 0 0 0 0
34 38 42 46 52 56 64 66 60 59 60 53 45 42 44 43 39 35 35 39 40 34 29 26 24 19 14 12 13 17 23 28 34 37 34 26 17 10 6 3 1 0 0
36 41 48 52 57 61 67 72 73 74 76 73 69 66 65 61 52 44 44 49 50 45 44 46 44 36 24 16 16 23 32 39 46 49 45 35 24 15 10 6 2 1 0
35 41 46 49 56 62 67 73 80 84 86 83 78 73 71 68 61 51 48 51 55 53 51 55 56 48 33 23 22 29 39 47 53 54 50 42 32 21 13 8 4 1 0
30 35 36 39 49 58 63 68 75 81 84 82 75 69 67 65 60 54 49 49 50 49 49 52 57 54 42 31 26 32 41 49 55 55 51 46 37 26 16 9 4 2 1
24 26 28 32 41 48 52 57 65 71 75 77 74 68 62 58 54 50 48 46 43 43 44 46 53 57 53 40 31 31 37 46 52 52 49 46 39 29 19 11 6 3 2
16 18 23 27 33 38 40 47 57 64 69 73 74 69 61 56 53 48 44 42 40 40 39 38 44 53 55 49 37 29 32 42 46 46 46 44 38 28 19 12 8 5 4
11 14 18 22 26 28 31 38 49 59 63 65 68 69 64 60 56 51 44 40 40 39 35 31 33 40 46 49 42 28 26 33 37 38 40 40 33 23 16 11 9 7 6
7 10 12 15 17 18 21 27 37 47 52 52 57 62 62 59 56 52 46 42 40 37 33 29 29 33 38 45 44 30 19 19 23 28 33 34 27 18 12 10 10 9 7
3 4 5 6 8 10 12 16 24 31 37 41 45 50 52 52 51 50 46 44 42 40 35 33 33 33 37 43 41 28 14 8 9 16 25 26 21 17 14 12 11 9 7
2 2 1 1 3 4 5 7 12 16 22 29 36 41 45 48 49 48 46 44 46 44 39 37 37 36 37 40 33 19 9 3 3 7 13 15 13 13 14 13 12 10 8
3 3 2 1 1 1 1 2 3 6 10 17 24 32 40 45 47 47 45 43 44 42 37 33 34 35 36 37 28 12 4 2 1 2 3 4 4 6 8 9 8 7 6
6 7 5 2 0 0 0 0 1 1 3 7 11 18 29 37 41 43 43 42 38 33 29 28 30 30 34 35 24 10 4 1 0 0 0 0 1 1 2 3 3 3 3
17 16 11 5 1 0 0 0 0 0 1 2 4 8 18 28 35 38 41 42 38 32 28 27 27 27 29 27 17 10 6 2 0 0 0 0 0 0 0 0 0 0 1
32 26 18 10 4 1 1 0 0 0 0 1 2 4 9 19 29 36 39 40 40 36 30 26 25 25 24 17 11 10 8 3 0 0 0 0 0 0 0 0 0 0 0
38 31 21 14 7 3 2 1 0 0 0 0 1 1 4 12 24 33 36 36 36 35 28 21 19 21 20 14 10 8 6 3 1 0 0 0 0 0 0 0 0 0 0
37 30 22 14 7 3 2 1 0 0 0 0 0 0 1 7 17 25 28 28 28 26 21 15 13 13 13 11 8 6 3 1 0 0 0 0 0 0 0 0 0 0 0
34 28 22 14 7 3 2 1 0 0 0 0 0 0 1 3 9 15 18 20 19 18 16 13 8 7 6 5 4 2 1 0 0 0 0 0 0 0 0 0 0 0 0
28 24 20 14 8 4 2 1 0 0 0 0 0 0 0 1 4 8 12 14 14 13 13 11 7 3 2 1 1 0 0 0 0 0 0 0 0 0 0 0 0 0 0
21 18 14 11 7 4 2 1 0 0 0 0 0 0 0 0 1 3 6 10 11 11 11 8 4 2 1 0 0 0 0 0 0 0 0 0 0 0 0 0 0 0 0
19 16 11 8 5 3 1 0 0 0 0 0 0 0 0 0 0 1 2 4 6 7 7 4 1 0 0 0 0 0 0 0 0 0 0 0 0 0 0 0 0 0 0
17 15 10 5 3 2 1 0 0 0 0 0 0 0 0 0 0 0 0 1 1 2 3 2 1 0 0 0 0 0 0 0 0 0 0 0 0 0 0 0 0 0 0
11 10 7 3 1 1 0 0 0 0 0 0 0 0 0 0 0 0 0 0 0 0 0 0 0 0 0 0 0 0 0 0 0 0 0 0 0 0 0 0 0 0 0
4 4 3 1 0 0 0 0 0 0 0 0 0 0 0 0 0 0 0 0 0 0 0 0 0 0 0 0 0 0 0 0 0 0 0 0 0 0 0 0 0 0 0
1 2 2 1 0 0 0 0 0 0 0 0 0 0 0 0 0 0 0 0 0 0 0 0 0 0 0 0 0 0 0 0 0 0 0 0 0 0 0 0 0 0 0
Wind_Speed
8 7 6 7 8 8 8 8 9 10 10 11 11 11 11 11 10 9 6 9 12 13 15 15 15 15 15 15 15 15 16 17 17 18 18 19 19 18 18 18 17 17 17
8 8 9 8 9 8 8 8 10 9 9 9 11 11 11 11 10 10 10 8 13 15 15 15 15 15 14 14 15 15 15 16 16 17 18 18 19 18 18 18 18 17 17
9 9 9 9 9 8 9 8 10 9 9 10 11 11 10 10 10 10 10 9 9 13 16 16 16 15 15 15 15 15 15 15 15 16 17 18 18 18 18 18 18 18 17
10 9 9 10 9 8 8 8 9 9 9 8 9 9 8 8 11 11 11 10 9 9 11 16 16 15 16 16 16 16 16 15 16 16 17 17 18 18 18 18 18 18 17
10 9 9 9 10 8 9 9 8 8 9 9 9 9 8 9 9 10 11 12 11 11 11 10 15 15 16 16 16 16 16 16 16 16 17 17 18 18 18 18 18 18 18
9 9 9 10 10 9 9 9 10 10 9 9 10 10 9 9 9 10 12 12 11 12 13 13 10 12 17 16 16 17 17 16 16 16 16 17 18 18 18 18 18 18 18
7 8 8 8 8 8 9 11 10 11 10 8 8 9 10 11 12 11 11 11 12 12 12 12 10 9 8 15 16 16 17 17 15 15 15 16 17 17 17 18 18 18 18
7 7 8 8 8 7 10 10 10 9 9 7 7 6 7 8 9 11 10 10 11 10 11 12 12 10 10 8 8 13 14 15 15 15 15 15 15 15 16 17 17 18 18
7 7 8 8 8 9 8 9 9 11 10 9 8 7 7 8 6 6 9 9 9 8 9 10 11 10 10 8 7 10 11 11 12 14 14 14 14 13 13 15 16 17 17
6 6 7 7 8 8 8 10 9 9 10 9 8 9 10 8 6 6 6 8 9 9 10 9 8 8 9 8 6 4 6 8 10 12 12 12 11 12 12 12 14 16 17
5 6 6 7 7 8 9 10 10 10 9 10 9 8 9 9 11 10 9 8 7 8 8 8 7 7 7 6 5 6 7 7 7 8 9 9 9 9 9 10 12 13 15
4 5 6 6 8 8 8 9 9 11 10 11 10 9 9 8 9 10 11 9 8 6 6 5 6 5 5 5 5 6 6 6 6 6 6 7 7 7 6 6 7 7 9
5 5 6 7 7 7 8 9 9 10 11 12 11 10 10 10 10 10 10 9 9 6 5 5 5 5 5 4 4 8 7 7 7 7 7 7 7 7 6 5 5 4 4
6 6 7 7 8 9 9 8 9 10 9 11 13 13 10 10 10 10 10 9 8 7 6 7 4 4 3 3 5 6 7 9 9 9 9 9 9 8 8 8 8 8 7
6 7 7 8 8 9 9 9 9 10 10 11 11 12 11 10 10 9 9 10 9 8 7 6 4 3 3 3 6 6 8 10 10 10 10 10 10 9 9 9 9 8 8
8 8 8 8 8 8 9 9 10 9 10 10 9 10 10 9 8 8 9 9 9 8 5 3 3 4 5 5 6 7 9 12 10 10 10 10 10 10 10 10 9 9 9
9 9 8 8 8 8 8 8 9 9 10 9 9 9 10 10 7 7 7 7 7 7 5 3 2 4 5 7 7 7 8 8 8 10 11 11 10 10 10 10 9 9 8
10 10 9 9 8 8 8 8 9 9 9 9 8 8 8 6 6 6 5 5 5 6 6 7 4 4 5 7 8 7 7 7 8 12 12 11 10 10 9 10 10 9 8
11 10 10 9 9 8 7 7 7 7 7 7 7 7 6 5 4 3 3 3 3 5 6 8 6 4 4 6 8 8 8 6 8 11 12 12 11 10 10 10 9 9 8
11 11 11 10 9 8 7 6 6 5 5 5 5 5 5 3 2 1 1 3 4 6 8 8 8 6 5 6 6 7 7 5 6 7 8 9 11 11 11 10 9 8 7
11 11 11 11 10 8 6 5 5 4 4 4 3 3 4 3 4 2 3 4 6 6 7 8 8 7 7 6 6 6 8 7 6 5 6 7 8 8 9 10 9 8 6
11 10 11 11 11 8 4 2 6 5 3 3 2 2 1 3 6 7 8 8 7 8 9 8 7 8 8 7 6 6 7 7 6 4 4 5 5 5 6 7 8 7 6
11 10 11 12 11 8 8 7 6 6 4 1 0 0 2 4 5 7 10 12 12 11 9 7 10 9 8 7 7 7 5 5 6 5 4 6 5 5 7 9 8 6 5
10 9 10 11 11 9 11 9 7 7 4 3 2 3 4 5 6 8 10 11 10 10 8 8 9 8 8 6 5 7 8 8 7 4 2 4 5 5 6 7 8 5 4
11 10 9 10 11 9 12 11 9 6 5 5 4 4 5 8 8 8 11 12 11 10 13 16 14 13 12 8 3 6 7 7 8 6 2 3 4 4 4 5 8 8 6
11 10 9 9 10 9 12 13 11 7 6 6 5 5 6 8 8 6 10 11 12 10 11 12 11 10 10 7 4 3 4 5 7 6 3 1 4 3 4 4 3 3 5
Wind_Direction
257 262 263 261 265 264 254 247 255 258 257 256 257 256 259 261 262 261 258 214 219 231 238 242 242 241 238 235 234 231 228 224 221 219 218 220 221 220 220 219 217 214 211
263 266 264 260 261 263 267 267 264 261 260 261 261 261 261 264 265 265 265 244 220 226 234 239 241 242 241 238 234 230 227 224 220 218 217 219 220 220 220 220 219 216 213
260 262 267 265 263 265 266 262 266 264 258 257 258 259 257 257 260 260 264 269 255 227 223 231 237 239 241 241 237 233 227 223 219 216 216 217 218 219 218 218 218 216 213
264 266 268 268 268 266 262 258 256 258 257 259 259 256 256 253 252 254 254 253 257 260 235 222 227 233 238 242 240 235 229 223 218 215 215 216 217 218 218 218 218 216 213
275 272 273 275 275 270 266 263 258 256 258 256 257 255 255 254 254 257 257 256 251 251 256 237 219 226 235 242 242 240 233 225 220 215 214 214 216 217 216 217 218 216 213
284 284 277 278 279 274 270 265 265 260 258 259 262 262 258 257 254 253 253 254 252 250 250 256 244 227 223 231 236 238 237 231 223 217 215 215 216 216 215 216 217 216 214
296 289 287 290 284 278 276 274 270 268 263 258 259 260 256 251 248 250 250 255 252 249 251 250 251 253 233 217 223 231 233 231 226 220 217 217 216 216 215 216 216 216 214
302 293 294 291 288 284 276 275 272 269 266 252 248 260 266 258 243 242 240 242 251 249 244 242 242 240 249 247 215 214 225 229 228 223 217 216 213 212 214 216 216 216 214
299 300 298 295 296 286 283 284 279 273 271 266 248 246 253 256 266 245 239 242 243 246 248 245 240 237 234 240 239 205 206 218 222 220 213 211 206 208 212 216 216 215 213
295 298 297 298 295 292 290 282 281 281 273 269 259 244 248 264 265 264 245 239 238 238 246 249 247 235 232 233 225 223 193 206 214 215 213 204 201 204 206 213 217 217 214
282 287 294 297 296 292 294 293 292 283 278 272 269 264 256 252 247 250 257 249 240 237 237 237 240 242 234 226 227 209 179 189 197 201 199 194 194 196 197 206 215 218 215
277 281 290 293 290 293 294 291 288 280 276 276 271 263 257 252 246 245 249 250 247 246 240 239 236 233 227 219 207 148 152 159 157 159 165 170 175 175 175 182 199 206 210
283 288 292 290 290 291 289 289 284 283 279 274 269 264 257 253 255 251 249 249 246 246 238 234 232 229 222 205 161 141 136 137 133 130 128 129 133 132 129 132 142 150 154
287 295 283 282 287 288 288 288 284 279 276 273 271 269 264 256 250 246 244 243 242 237 229 225 214 213 214 184 139 150 128 122 119 116 114 113 111 109 105 101 97 95 94
271 270 273 278 283 286 290 291 285 286 284 278 274 269 262 259 252 249 244 237 234 232 226 211 201 194 175 151 149 143 126 115 112 111 110 109 109 107 105 102 97 93 88
262 263 266 273 278 283 287 289 291 292 289 284 281 278 272 264 255 247 242 235 230 231 228 191 183 168 156 146 138 133 120 117 107 111 110 108 107 106 105 102 97 93 89
256 255 259 266 273 279 285 289 293 297 293 292 288 280 274 270 260 249 240 232 224 215 206 169 145 138 142 138 131 129 132 129 113 108 111 108 106 105 103 100 96 92 89
254 251 254 260 267 274 282 290 296 303 303 302 300 293 285 275 261 249 234 223 211 196 182 158 143 133 138 135 127 129 125 120 114 109 109 108 107 106 104 99 94 89 85
258 252 249 253 261 269 276 285 292 300 305 306 307 303 295 286 270 252 220 198 185 170 161 147 140 131 133 133 129 121 112 114 118 120 115 110 107 106 104 101 97 91 84
264 254 248 248 254 259 264 273 283 295 303 312 319 319 312 299 289 238 161 144 143 141 142 138 135 135 131 134 134 132 125 128 125 124 112 114 115 111 109 106 100 93 86
271 259 251 246 245 246 249 260 265 273 292 306 325 345 359 22 30 54 111 128 130 131 133 133 134 133 135 142 142 141 129 128 120 128 136 137 142 138 131 123 103 87 79
280 266 253 247 241 239 165 223 269 259 272 287 315 2 54 72 73 75 80 88 107 127 133 132 131 131 131 133 131 140 141 144 134 135 141 129 133 124 115 95 85 84 75
289 273 256 249 241 221 171 198 242 259 246 250 226 130 91 100 116 109 94 87 79 80 98 119 124 126 129 132 141 144 140 129 112 132 151 130 133 123 113 98 102 92 79
293 282 265 252 243 215 181 196 215 234 221 186 159 129 120 124 114 115 110 100 95 86 93 106 109 110 113 118 125 119 118 119 119 111 142 132 130 130 124 119 125 119 109
289 282 270 255 242 216 186 191 204 209 188 170 155 134 132 127 114 115 114 108 102 92 73 75 81 84 77 70 89 141 151 150 135 122 127 132 132 141 140 133 142 163 163
286 281 272 257 242 225 188 189 201 202 178 164 150 138 119 123 133 133 128 123 119 117 117 110 104 108 104 93 65 129 153 144 136 123 107 144 134 154 145 125 113 146 168